Wind_Speed
43 43 45 48 50 50 49 48 47 44 40 36 35 34 34 34 34 33 31 31 29 29 33 34 33 37 41 40 35 32 30 31 32 32 32 31 30 30 29 28 28 29 27 24 23 25 26 25 23 22 22 23 23 23 24 25 25 25 25 25 23 22 22 23 22 22 22 21 21 20 20 19 18 18 19 19 18 18 19 19 20 19 19 19 19 20
43 46 51 52 51 49 47 47 46 46 44 40 36 35 35 36 37 35 33 32 31 32 35 34 33 34 39 43 40 37 37 36 36 35 34 34 33 32 31 30 30 29 27 24 24 26 27 28 27 27 27 27 27 26 25 25 25 26 27 26 24 24 25 24 23 23 23 22 21 21 21 20 19 20 21 21 21 21 22 22 22 21 21 20 20 21
45 50 53 51 48 47 46 48 47 46 45 43 39 35 34 35 35 34 33 32 30 33 35 34 36 38 40 45 45 44 45 42 38 38 37 36 36 35 33 31 30 30 27 25 24 25 27 28 28 30 30 30 29 28 28 27 27 27 28 28 26 26 26 25 24 24 24 23 22 22 22 22 22 22 22 23 23 24 25 23 22 21 20 20 21 21
48 52 53 49 47 48 49 48 47 46 45 43 41 37 35 34 32 31 30 29 30 33 36 36 41 46 45 47 51 47 47 46 40 39 40 40 40 38 35 33 31 29 27 26 25 24 25 26 27 30 31 32 31 30 30 30 29 28 28 28 27 27 26 25 25 25 24 24 24 25 24 24 24 24 24 24 25 25 23 22 21 20 19 19 20 20
52 51 50 49 48 50 50 49 47 46 45 44 44 42 40 37 34 32 29 27 29 30 35 35 39 51 53 50 53 49 46 48 44 41 42 41 42 40 37 35 32 30 27 26 26 24 25 26 27 29 31 33 34 33 32 31 30 29 28 28 28 28 27 26 26 25 26 27 27 27 27 26 26 24 25 25 24 22 21 20 19 18 19 20 20 20
54 51 48 49 51 50 47 48 48 47 46 44 46 46 44 41 38 35 32 28 27 27 32 29 24 37 45 41 43 42 41 44 41 41 44 41 41 41 40 37 33 31 28 27 26 24 25 25 25 29 32 34 35 34 33 32 31 31 29 29 30 30 30 28 27 27 28 29 29 29 29 28 27 26 25 24 22 21 21 20 20 20 22 22 22 23
53 53 49 47 48 49 45 46 49 48 44 43 47 47 43 43 40 37 34 29 26 25 26 23 17 26 39 41 42 41 40 41 38 38 40 40 40 41 40 38 34 32 29 27 26 24 24 24 24 27 31 33 34 33 33 33 33 33 32 31 31 32 32 31 30 30 30 30 30 30 30 29 29 28 26 24 23 24 24 23 24 24 24 24 24 25
51 52 51 47 45 47 48 49 50 48 44 44 47 44 40 43 39 35 32 27 27 26 24 24 22 26 43 52 50 47 46 45 43 39 36 36 38 40 39 37 35 32 28 25 24 25 26 25 25 26 29 32 32 33 35 35 35 34 33 32 31 31 33 34 34 33 32 31 31 31 31 31 31 30 27 26 27 27 27 27 27 27 26 26 26 26
50 52 53 51 47 47 50 51 49 48 47 45 43 40 39 38 35 32 27 24 26 26 26 29 25 20 37 54 50 47 51 50 48 43 37 34 33 35 36 34 33 29 26 25 25 27 27 26 26 26 28 31 32 34 35 36 35 34 33 32 32 32 33 35 36 36 35 34 33 32 33 33 32 31 29 29 30 29 30 29 29 29 28 28 27 27
47 49 50 50 50 50 50 48 47 48 47 44 37 34 35 32 30 27 21 23 23 20 26 34 29 18 31 54 49 44 52 50 45 42 37 35 32 32 33 30 30 28 26 26 26 27 27 26 26 26 28 31 32 33 33 34 34 33 33 33 33 33 33 35 36 37 37 36 36 35 35 34 32 31 31 31 32 31 31 30 30 30 29 29 28 28
45 47 47 46 48 49 48 44 44 45 44 40 32 28 28 27 29 26 23 26 18 14 31 41 37 22 23 46 44 41 52 49 43 42 38 35 30 30 32 30 30 29 27 27 27 27 26 25 24 25 28 29 30 32 32 33 33 33 33 33 33 32 31 33 35 37 38 38 38 38 37 36 33 32 32 33 32 31 32 31 30 31 30 30 29 29
42 42 44 47 47 46 45 42 39 38 40 39 32 28 22 17 22 22 22 25 11 11 37 46 41 29 23 36 28 20 33 36 35 39 35 32 29 28 31 30 29 28 28 27 26 26 24 22 23 24 26 27 29 31 31 31 33 33 34 33 33 31 30 31 31 33 35 36 38 38 38 38 36 35 35 34 33 31 32 31 30 31 30 30 29 29
45 45 44 46 47 46 43 39 34 32 37 40 34 30 20 10 11 13 13 15 11 20 36 31 26 29 36 53 43 26 29 30 32 37 34 31 27 25 27 27 28 28 28 28 26 24 23 22 25 26 26 26 27 30 30 30 32 33 34 33 33 31 30 30 29 30 31 33 34 35 37 38 38 38 38 36 34 32 32 31 30 31 30 29 29 28
41 44 45 42 43 47 45 40 37 35 39 41 40 37 27 12 5 7 9 6 10 27 34 24 19 20 30 52 57 50 48 45 46 48 44 38 31 28 27 25 27 26 25 25 23 23 25 27 29 28 28 27 26 28 28 29 30 33 34 33 32 31 29 29 29 30 31 31 32 33 34 36 38 40 40 38 36 33 32 31 31 31 30 30 29 27
31 30 40 45 43 46 48 46 43 43 45 47 49 47 38 26 14 8 9 8 11 18 21 20 16 10 21 43 48 43 42 43 47 47 43 40 34 32 32 30 29 26 24 24 24 25 26 26 27 27 28 27 25 26 27 28 29 31 33 32 31 30 30 30 30 30 30 29 29 30 31 33 36 39 41 40 38 35 34 33 32 31 31 30 29 27
35 27 36 47 47 46 45 46 46 42 41 44 47 42 40 42 31 14 10 16 18 13 10 16 16 17 36 56 56 47 43 42 43 44 42 39 34 32 33 33 31 29 29 30 28 26 23 22 23 23 24 25 23 24 26 27 28 30 31 31 31 30 30 30 30 29 28 28 29 29 29 30 32 36 39 41 40 37 35 34 33 32 31 31 29 29
32 27 31 36 42 46 42 41 45 42 37 39 43 41 44 48 37 17 9 13 14 9 11 18 23 33 44 54 59 58 54 50 46 47 46 43 39 35 33 28 22 21 24 26 25 24 22 22 22 21 21 21 22 22 24 25 26 28 28 30 31 30 30 29 28 27 27 28 28 28 28 28 29 32 36 39 40 38 37 36 35 33 32 31 30 30
24 24 27 29 34 43 43 35 39 44 42 39 42 46 46 40 33 24 9 3 6 5 11 20 31 37 33 39 53 53 51 52 49 49 50 47 42 36 33 30 23 20 20 21 24 24 24 24 24 25 25 24 24 24 23 24 24 26 27 28 28 28 28 28 28 28 28 28 28 27 27 28 29 30 32 36 38 39 39 38 36 34 33 32 32 31
22 17 18 25 27 33 39 37 35 41 44 42 41 44 40 26 24 29 16 5 7 5 6 18 31 36 36 46 56 51 50 50 43 40 41 39 36 33 33 33 30 29 28 28 31 31 31 31 31 32 31 30 29 26 24 24 24 26 26 27 27 27 27 29 30 31 30 30 30 29 28 28 29 30 30 32 35 39 40 39 37 36 34 33 33 33
27 17 11 20 23 21 30 38 39 40 43 43 40 41 42 31 24 31 29 19 14 7 7 14 17 25 44 60 63 59 60 55 44 38 32 29 30 29 26 23 21 25 29 33 38 39 37 35 33 31 29 29 28 25 24 24 24 25 26 27 28 28 30 31 31 32 32 32 32 31 30 30 29 29 28 29 33 36 38 38 38 38 36 35 35 34
33 25 16 16 20 21 26 33 37 40 44 46 43 40 43 39 28 25 29 30 20 7 5 9 9 25 51 59 55 55 56 54 50 46 41 39 36 30 25 23 21 26 29 30 33 34 33 30 28 27 26 25 25 25 25 25 24 25 27 28 30 31 32 32 32 33 33 33 33 31 30 29 29 28 28 28 30 32 35 36 38 39 38 38 37 37
35 32 27 21 23 28 31 32 33 34 39 45 48 46 45 45 38 21 16 29 32 19 12 9 9 33 55 52 46 47 43 42 42 40 40 40 36 35 35 35 32 32 30 25 23 24 27 27 26 27 27 25 25 25 25 26 26 27 28 30 31 32 32 32 32 33 33 32 31 30 28 28 28 28 27 27 28 30 32 35 38 39 40 41 40 40
41 36 33 28 27 30 32 33 33 32 35 40 45 48 45 43 42 28 14 23 34 32 30 20 12 36 59 53 47 47 42 40 38 34 33 30 26 28 32 34 33 32 29 25 22 26 27 24 24 26 26 24 23 23 24 26 27 27 28 30 30 30 30 31 32 32 32 31 30 29 28 28 28 28 28 28 28 29 31 33 36 38 40 40 40 41
40 35 32 27 26 30 31 32 34 34 35 38 43 47 45 42 44 41 33 30 27 29 33 20 10 38 63 58 53 52 46 44 42 37 34 28 21 20 21 24 28 30 32 29 28 29 24 21 23 23 22 22 22 23 24 24 25 25 26 26 26 27 28 29 30 30 30 30 30 30 30 29 30 29 29 28 27 28 29 31 33 35 36 37 37 38
38 37 36 25 14 16 20 21 27 33 36 40 44 45 45 47 47 43 42 36 23 25 34 19 10 39 62 56 53 52 45 44 40 35 33 30 26 26 24 24 25 28 32 33 31 27 22 24 25 21 21 23 22 21 19 20 21 21 23 23 24 25 26 28 29 29 29 29 29 30 30 30 31 30 29 28 27 27 27 29 30 31 32 32 32 32
40 40 41 29 13 9 12 16 28 39 41 42 45 45 46 50 50 45 42 36 24 28 38 28 25 49 63 55 52 50 43 39 35 32 32 30 29 30 27 25 25 26 28 29 29 28 27 26 24 22 22 23 23 21 19 19 20 22 24 24 25 25 26 27 28 28 28 28 29 30 30 31 30 29 28 27 26 26 26 26 26 27 27 27 27 26
40 41 45 43 36 32 33 34 40 45 43 42 45 48 48 50 53 51 43 35 33 34 37 39 42 55 64 61 57 51 40 34 31 28 27 27 25 24 22 21 22 24 24 25 28 32 32 27 26 26 23 22 24 24 23 23 25 27 28 28 28 29 29 28 28 27 27 28 29 30 29 29 28 27 26 25 25 24 24 24 24 24 24 24 24 24
41 42 44 47 48 49 47 42 40 41 41 42 45 48 51 50 52 54 49 45 43 33 32 45 50 51 63 68 59 50 41 35 32 28 25 24 21 20 21 22 24 27 29 30 31 34 34 30 29 30 26 24 26 27 29 31 32 32 31 30 31 31 30 30 29 28 28 28 29 29 28 27 26 26 25 24 24 23 23 23 23 23 23 23 23 23
43 44 46 48 49 51 50 43 37 35 35 36 38 41 46 49 50 53 56 57 51 35 33 46 45 44 62 69 58 52 48 40 35 30 27 28 27 27 29 30 33 37 37 34 33 34 33 31 31 32 31 31 33 33 35 37 37 35 31 30 30 30 30 30 29 29 30 30 29 28 27 27 26 25 24 24 24 23 23 23 23 23 23 23 22 22
43 44 46 47 47 51 52 47 42 39 34 33 35 35 36 40 44 48 52 55 54 45 41 43 39 44 63 67 58 54 51 44 40 36 35 38 38 37 37 38 41 42 39 37 37 36 34 32 32 34 36 38 38 37 37 37 37 35 32 30 29 29 29 30 30 30 30 30 28 27 27 26 25 25 25 25 24 24 24 23 23 23 22 22 22 21
42 41 42 42 43 47 50 49 46 44 39 36 37 36 34 32 33 37 40 43 48 50 50 50 47 54 68 67 56 51 49 47 47 47 49 50 46 43 43 43 45 46 45 43 42 40 39 37 37 38 40 43 44 43 41 39 37 34 32 30 29 29 30 30 30 31 30 29 28 28 27 26 26 26 26 25 25 24 23 22 22 21 21 20 20 20
43 41 39 37 34 39 46 45 45 48 45 41 40 38 36 36 35 37 38 38 40 44 46 49 50 60 72 67 57 57 56 52 53 55 54 52 49 47 48 50 52 53 51 48 42 40 41 40 41 43 45 47 48 46 44 42 39 36 33 30 29 30 31 31 32 31 30 30 29 28 27 27 27 27 26 25 24 22 22 21 20 19 19 19 19 19
46 44 41 35 28 34 42 41 42 43 34 34 43 45 43 46 49 50 50 49 49 46 45 45 47 54 59 52 50 60 67 64 63 61 58 54 52 52 54 57 58 54 51 49 44 42 42 43 46 48 47 45 44 43 43 43 41 36 33 31 30 32 33 33 33 32 31 31 30 28 28 27 27 26 25 24 23 22 21 20 19 19 19 19 19 19
47 46 45 38 29 33 39 36 34 28 17 24 44 51 50 53 56 56 57 58 60 58 56 55 52 52 52 47 45 54 62 62 62 61 60 58 57 56 57 57 53 50 49 49 47 46 45 46 47 46 42 39 39 38 39 41 42 38 34 34 33 33 34 34 34 34 32 31 31 29 28 27 26 25 24 23 23 22 21 20 20 20 20 20 20 20
42 44 44 39 33 34 36 29 20 12 16 33 48 49 51 54 53 54 57 57 57 58 58 58 58 60 60 56 51 49 49 49 51 55 57 57 56 55 52 49 47 49 50 47 43 42 41 41 41 40 38 37 36 34 35 38 40 39 37 36 35 34 34 35 35 35 33 32 31 30 29 27 26 24 23 23 23 22 21 21 21 21 21 21 21 21
30 32 33 32 31 29 27 22 13 5 15 35 46 47 48 47 42 45 51 53 53 53 51 51 56 62 61 59 56 52 47 46 48 51 51 49 49 50 49 49 49 48 45 39 35 35 35 35 36 35 35 36 34 34 35 36 36 38 39 39 37 37 37 36 36 36 35 33 31 30 30 28 26 26 25 24 24 23 22 22 23 23 23 22 23 23
22 21 22 24 24 20 17 17 16 13 14 25 37 41 43 43 43 44 49 51 49 47 47 47 49 52 52 53 53 48 44 46 49 49 47 47 49 52 54 54 50 43 39 37 36 38 38 38 36 34 34 34 35 35 35 33 34 39 42 42 40 40 40 39 38 37 36 35 33 32 31 30 29 29 28 27 27 26 25 25 25 25 25 24 24 25
21 21 21 19 17 17 14 9 8 9 8 14 26 31 31 34 36 37 43 48 45 40 42 43 41 40 42 47 48 45 44 49 51 48 48 51 52 51 50 47 43 40 39 40 40 40 39 36 34 32 32 34 36 38 37 34 35 40 45 48 46 43 42 42 41 39 38 37 36 34 33 33 33 32 31 31 30 29 29 28 28 27 27 26 26 26
20 19 19 17 14 16 15 7 4 6 5 7 15 22 23 23 22 23 31 40 41 35 34 37 38 38 41 45 48 46 45 48 50 51 53 53 47 41 37 35 34 35 36 35 34 33 33 32 31 31 32 34 38 40 39 37 37 40 46 50 49 47 46 45 43 41 40 40 37 34 34 35 36 35 34 34 34 33 32 31 31 30 29 28 28 28
22 20 19 19 19 19 17 12 10 14 14 11 8 10 14 16 16 16 17 24 32 32 29 32 37 40 43 45 46 46 46 49 52 53 51 46 37 30 28 28 28 27 26 26 26 26 28 30 31 32 34 36 38 39 39 40 41 42 45 49 51 50 48 46 42 41 41 40 36 33 33 34 35 37 37 37 38 37 36 35 34 33 32 31 30 30
24 22 22 24 24 22 20 16 15 21 26 24 16 11 10 10 11 13 13 18 27 25 19 22 27 29 31 32 34 37 40 40 42 41 35 30 27 26 25 25 25 24 24 24 25 25 27 29 30 32 34 36 37 38 40 43 45 44 43 46 51 52 48 44 41 40 41 40 36 33 32 32 34 36 38 39 39 38 37 36 36 35 34 33 32 32
24 22 22 25 26 23 22 19 15 21 30 33 29 26 24 21 18 17 15 18 23 20 16 18 19 19 19 19 21 27 29 28 29 29 27 27 29 28 27 26 27 26 26 26 26 26 28 29 29 31 33 33 34 36 40 45 48 46 42 43 47 47 44 42 41 41 42 41 37 34 32 32 34 36 37 38 37 36 36 37 37 36 36 35 35 34
20 19 18 24 26 22 20 16 10 16 28 30 26 25 28 26 25 25 24 22 23 22 21 23 23 22 21 21 24 28 29 29 29 29 29 31 32 32 30 29 27 26 25 25 26 27 29 31 32 32 32 31 31 33 38 44 48 47 44 44 44 41 40 43 43 43 43 42 39 36 33 33 35 36 36 35 35 35 36 37 37 37 37 37 37 36
18 20 21 25 26 22 22 21 15 15 20 19 15 16 19 20 20 22 26 28 29 29 29 28 27 26 26 26 27 29 30 32 32 31 32 33 33 33 32 29 26 26 26 26 27 28 30 32 34 34 34 33 32 33 36 42 46 48 47 47 43 39 41 45 45 44 44 42 40 38 35 36 37 36 35 34 35 36 37 37 38 38 38 39 38 37
24 27 26 27 27 23 22 24 22 20 19 19 19 20 21 21 21 21 22 27 32 36 36 32 29 29 30 30 31 32 33 33 33 33 34 35 35 35 33 30 28 28 28 28 29 30 32 34 35 36 37 36 34 34 37 40 44 47 48 46 42 40 43 45 45 45 44 42 41 40 38 39 38 36 35 36 36 37 36 36 37 38 38 39 39 38
25 23 22 23 25 25 27 30 30 28 28 29 27 26 24 25 26 25 25 29 33 36 36 33 31 29 29 32 33 33 34 34 34 34 35 36 38 39 37 35 33 31 31 32 31 31 33 35 36 38 40 40 38 37 39 41 44 47 48 45 43 43 44 45 45 45 44 42 42 41 41 41 40 37 37 38 37 37 36 36 37 37 38 39 39 39
25 21 20 21 21 23 29 34 34 33 33 32 31 30 29 28 28 27 28 32 35 35 33 31 31 29 28 30 32 33 34 34 34 36 36 37 40 42 41 40 39 37 36 36 33 31 32 35 38 40 42 43 41 41 42 44 47 48 47 46 46 45 45 46 46 45 44 43 42 41 42 42 40 39 39 38 38 37 36 36 36 36 37 38 39 39
26 23 23 26 27 29 34 38 37 35 36 35 34 33 32 31 30 29 29 30 32 32 31 31 33 34 32 31 32 35 36 36 36 38 38 39 42 44 44 44 43 41 39 37 34 30 31 35 39 40 42 43 42 42 44 47 50 49 47 47 48 47 47 48 47 45 43 42 42 42 42 42 41 40 39 39 38 37 36 35 35 36 36 38 39 38
24 24 28 30 31 33 38 42 41 40 41 40 37 36 35 34 33 33 32 32 33 34 34 34 36 38 36 35 35 38 40 41 40 39 40 41 43 46 47 46 44 41 39 36 33 30 30 32 34 35 37 38 40 43 47 49 50 50 49 49 49 49 48 47 44 43 42 42 42 42 42 42 41 41 40 39 39 38 36 35 35 35 36 38 39 39
31 34 36 33 33 38 43 46 44 42 42 42 40 37 38 38 38 38 38 38 37 37 38 39 40 41 40 40 40 42 44 45 44 43 43 43 44 47 48 48 46 43 39 37 35 32 29 28 27 29 32 33 34 38 44 48 49 50 50 51 51 50 47 43 41 40 41 41 41 41 41 42 43 42 41 40 39 38 37 36 36 37 38 39 40 41
42 44 42 38 40 46 49 48 45 43 44 45 43 41 40 40 40 41 41 41 40 40 41 43 44 44 45 45 45 46 48 48 47 47 47 46 46 46 47 48 48 45 42 40 38 35 30 26 25 27 29 30 31 32 35 41 45 48 50 52 53 51 46 41 40 40 40 40 40 40 41 42 43 42 42 41 40 39 38 37 37 38 39 40 41 41
Wind_Direction
205 207 209 212 214 215 216 218 222 225 228 230 230 230 233 236 239 240 242 246 251 253 255 257 260 263 264 264 264 262 261 259 258 259 259 260 260 259 260 261 263 265 270 272 264 257 253 250 248 248 250 249 249 249 248 247 246 248 250 251 252 252 253 254 256 259 261 261 263 263 264 266 266 264 261 260 258 257 257 255 255 255 255 256 256 257
205 210 213 215 216 216 217 219 222 226 228 229 230 232 236 239 242 245 245 246 250 253 256 259 260 260 262 264 264 263 262 259 255 256 258 260 260 259 259 259 260 264 268 270 265 259 256 254 253 252 252 251 251 252 253 253 250 248 248 250 251 251 252 253 255 257 260 262 264 265 265 264 261 258 257 256 255 252 251 250 252 254 256 258 260 260
203 211 217 220 219 216 218 219 221 224 226 228 230 233 237 239 242 244 245 245 247 252 257 260 260 260 261 264 265 263 263 261 256 255 255 258 259 256 255 256 258 261 264 267 267 262 257 255 255 254 253 253 252 253 254 255 253 249 246 246 247 248 250 253 255 256 259 262 263 263 263 261 259 257 256 256 255 254 254 255 258 260 262 263 265 266
204 215 220 220 218 216 218 219 221 224 225 227 229 231 235 238 239 241 243 245 248 253 258 262 265 265 262 262 262 261 262 262 258 255 255 254 255 255 254 255 256 257 261 267 269 263 257 255 255 255 254 254 253 251 251 252 253 252 249 246 246 247 250 251 253 256 258 258 258 258 259 258 257 256 256 256 257 259 262 265 267 269 269 269 268 268
210 218 219 215 217 219 219 219 220 222 224 227 229 230 234 236 238 241 244 247 250 254 258 265 273 272 267 264 263 261 262 263 259 255 254 252 253 254 255 255 255 257 259 264 267 263 258 258 260 260 258 256 253 251 250 251 253 254 253 250 247 247 248 249 250 251 252 253 254 255 255 256 256 257 258 260 263 268 270 271 271 270 268 264 263 262
213 218 218 215 218 219 218 220 220 221 224 227 230 231 234 237 240 243 244 247 253 256 258 263 277 277 273 270 267 265 263 263 260 255 253 251 251 252 252 253 254 256 259 262 265 262 259 262 266 264 260 257 255 254 253 253 253 253 252 249 246 244 245 246 247 247 247 249 250 252 254 255 257 258 259 262 267 269 267 266 265 263 260 260 260 261
214 218 220 217 217 218 219 222 223 223 223 226 231 232 233 238 240 243 244 244 250 256 261 261 260 274 279 275 270 268 266 265 261 256 253 250 250 250 250 251 253 256 259 263 264 259 257 261 266 264 259 257 258 258 257 255 255 254 251 248 246 244 243 244 246 246 246 247 249 251 253 255 256 256 258 260 262 262 262 262 261 260 260 262 263 265
214 216 220 218 219 219 219 222 224 224 223 228 233 232 233 236 237 241 244 244 249 257 265 264 257 270 277 274 270 269 267 266 264 259 255 251 249 249 249 250 253 256 258 261 259 255 255 261 268 267 260 257 257 257 256 255 255 254 252 249 247 244 243 243 244 246 247 248 249 250 252 254 255 255 256 257 257 257 258 258 259 261 262 264 265 268
216 216 219 219 218 219 221 225 225 223 224 229 234 234 233 236 237 239 241 242 248 257 259 255 252 264 272 271 272 272 268 264 262 261 258 255 251 250 249 249 252 252 253 256 256 252 254 263 270 270 261 255 254 254 254 254 252 251 249 247 246 244 242 242 242 244 246 248 249 249 250 251 253 255 255 254 254 254 255 257 259 262 264 266 268 269
218 219 222 222 220 221 225 226 225 224 225 226 231 235 234 234 235 235 234 236 239 248 253 252 246 246 271 271 268 268 267 264 263 264 263 260 256 252 249 247 247 247 250 256 255 251 256 266 271 268 259 254 254 254 254 253 248 244 242 242 244 244 242 241 240 241 243 245 248 249 250 250 252 254 254 254 254 254 255 257 259 261 263 266 267 269
220 222 222 223 225 226 226 225 225 226 224 222 223 228 230 230 232 231 230 235 235 245 250 251 244 232 266 275 267 263 265 267 268 268 267 263 258 252 250 247 246 248 253 255 252 251 258 267 270 265 260 257 256 255 255 252 245 239 238 239 242 244 243 242 241 242 243 244 246 248 249 251 251 253 254 254 254 255 256 257 259 260 262 263 265 267
217 222 222 224 227 227 227 225 224 224 222 223 221 218 219 217 225 228 229 230 221 247 250 250 245 227 237 263 267 271 270 271 270 267 267 264 258 252 251 250 248 249 251 250 249 252 257 263 267 266 264 262 259 256 255 252 245 240 239 239 242 244 245 246 246 248 249 250 251 252 252 252 252 252 254 255 255 257 258 259 260 261 262 263 265 266
217 222 224 225 226 225 224 221 217 218 219 220 216 210 204 190 208 214 215 221 214 236 246 249 242 226 236 252 256 259 264 267 269 268 267 265 262 260 255 250 249 250 251 248 247 249 252 261 267 265 263 261 259 257 256 252 245 242 242 242 244 246 247 249 252 254 255 256 256 256 255 254 252 251 252 254 255 256 258 260 261 263 264 264 264 266
214 222 223 222 224 224 223 215 205 204 208 212 212 205 198 184 190 212 209 217 225 235 242 247 242 231 243 256 260 260 261 262 264 267 269 267 267 267 260 252 250 250 249 247 245 247 256 266 268 263 260 260 258 256 255 252 247 243 242 243 244 246 248 251 255 258 259 260 260 259 258 256 253 251 251 252 253 254 257 259 260 262 263 262 263 265
204 218 221 220 221 222 222 219 217 216 213 214 215 210 204 199 197 208 208 200 219 237 242 238 234 221 237 252 259 263 265 264 263 265 268 269 267 264 259 256 255 253 248 248 250 255 262 266 266 262 259 258 257 254 252 250 248 245 244 244 245 246 249 253 257 259 261 262 263 262 259 257 255 253 252 251 251 252 254 256 258 259 261 262 263 264
205 215 223 223 225 225 223 222 224 222 215 215 214 209 209 212 210 212 218 214 217 230 230 218 219 232 245 253 256 258 262 264 264 265 264 264 264 263 264 262 260 259 257 257 257 255 257 262 266 267 261 258 257 255 252 251 250 249 247 247 248 248 251 254 256 258 262 264 264 263 262 260 256 253 252 251 250 250 251 254 256 257 259 260 261 261
201 211 219 219 220 223 225 224 221 217 214 212 208 208 216 219 216 215 230 218 208 226 237 227 237 248 254 260 259 256 258 258 259 263 263 264 267 268 268 263 256 258 261 255 246 242 249 259 267 270 266 264 264 261 257 255 254 253 251 251 251 252 253 254 256 260 264 266 266 266 265 264 261 257 253 251 250 249 249 251 253 255 256 258 259 260
199 207 214 215 216 219 220 222 222 221 220 213 209 214 219 218 215 215 224 184 169 234 244 229 241 249 250 259 261 257 257 256 255 258 263 267 268 266 265 261 256 260 259 249 244 247 256 263 267 269 267 268 272 270 263 257 255 254 252 253 254 255 255 255 256 259 263 267 269 269 269 267 266 262 256 252 249 248 249 249 252 254 255 257 258 258
202 205 211 215 219 219 216 217 215 216 217 215 219 223 216 207 208 209 208 204 200 224 253 233 241 246 242 249 258 259 259 260 259 259 264 267 265 265 265 264 263 263 258 253 255 259 262 266 271 273 270 268 271 270 263 258 256 254 254 255 256 255 254 254 256 259 263 267 270 271 270 268 266 265 261 255 250 249 250 251 253 254 255 256 257 257
213 218 215 211 217 216 213 214 212 212 213 214 222 224 215 211 212 209 208 213 215 213 248 246 244 247 248 251 256 258 260 262 262 262 261 260 264 269 267 260 262 268 263 254 255 258 262 267 271 273 271 268 266 261 259 260 259 257 256 254 255 253 253 254 257 261 264 267 269 270 269 268 266 264 261 255 251 250 252 254 255 255 255 255 256 258
224 224 225 217 214 208 206 212 214 215 214 211 213 215 214 214 214 218 218 217 221 223 237 252 254 249 252 256 258 260 262 263 263 264 262 261 264 263 257 254 261 276 274 259 252 255 260 264 267 269 269 267 264 260 261 264 261 257 254 253 253 253 253 256 259 262 264 266 267 268 268 267 265 264 261 256 252 252 253 255 256 257 257 256 257 259
228 226 228 219 207 207 215 224 226 226 222 217 215 213 214 213 208 211 221 217 220 225 221 227 257 255 254 258 261 263 266 266 267 268 267 267 264 256 257 263 266 273 269 249 241 252 260 267 272 274 273 270 267 264 263 264 261 256 253 251 252 253 255 258 259 261 262 263 265 265 265 265 263 263 261 257 254 253 254 256 257 259 259 260 261 262
228 229 229 222 218 223 227 229 231 235 233 227 224 221 220 217 211 209 215 213 216 222 229 235 259 259 256 257 261 264 266 267 268 269 268 271 266 258 260 262 260 261 250 235 248 268 273 278 280 278 275 268 263 259 257 258 257 256 254 253 254 255 256 257 258 260 261 261 262 262 262 262 261 260 259 256 255 254 255 256 257 259 260 262 263 263
224 225 226 225 232 236 233 231 233 235 230 225 227 228 227 225 222 221 223 222 218 217 225 234 256 255 256 258 259 262 265 266 266 266 265 267 262 256 259 257 251 247 242 248 268 277 278 281 280 274 267 259 254 252 253 255 257 258 260 260 260 259 259 258 259 259 260 260 260 260 260 260 259 258 257 257 256 255 255 255 256 257 258 260 261 263
221 220 220 221 231 233 228 229 229 228 225 222 226 232 235 233 229 228 228 230 234 225 223 224 239 251 257 260 259 259 263 264 265 266 265 264 261 261 264 263 254 246 249 260 272 277 278 276 271 260 251 249 248 248 252 258 264 268 269 269 266 264 262 261 261 260 260 259 258 258 258 257 257 257 257 258 257 256 255 254 255 256 257 259 260 262
224 219 217 214 207 208 213 215 220 225 225 222 224 230 234 232 228 227 229 230 233 230 226 224 232 247 254 257 258 260 262 262 264 266 264 265 266 267 267 262 252 242 245 256 266 272 273 267 256 246 245 248 246 244 251 264 275 280 279 276 272 267 264 263 263 261 260 259 257 256 255 255 256 257 257 258 257 257 256 255 255 255 255 256 257 258
226 223 223 222 220 224 229 229 230 231 226 222 226 230 232 232 228 225 227 228 229 231 231 229 232 244 252 253 254 258 261 262 262 262 262 264 266 265 258 247 234 227 236 252 263 267 267 261 250 245 250 255 251 248 254 267 280 284 282 279 274 269 267 265 265 263 260 258 257 256 256 256 257 257 256 256 256 256 255 254 253 252 251 252 253 254
223 223 226 227 228 232 235 236 236 234 230 229 233 235 234 232 227 223 225 229 231 230 234 235 233 240 251 254 252 254 258 261 261 262 263 263 259 250 238 229 228 239 255 264 266 265 264 260 253 251 257 264 265 265 265 270 278 280 279 277 273 270 267 265 264 262 260 258 257 257 258 257 257 256 256 255 255 254 252 250 249 248 248 249 250 253
223 225 229 230 233 235 235 237 237 234 232 232 233 234 234 232 228 225 227 231 231 229 234 239 237 240 250 255 255 253 255 258 260 262 259 255 251 245 244 247 255 266 271 271 270 269 267 264 260 258 264 270 275 277 274 273 275 276 275 275 272 269 266 264 262 261 259 258 258 258 258 257 257 256 255 254 252 250 248 246 246 246 247 249 252 255
225 228 231 231 234 238 236 235 237 237 235 234 234 234 234 234 233 232 233 234 234 235 239 244 245 243 247 253 256 256 256 255 255 255 253 254 257 259 262 266 270 275 275 273 276 278 274 271 266 261 264 274 280 282 281 278 275 272 271 271 271 267 263 261 259 258 258 258 258 257 257 256 256 255 253 252 250 248 246 245 245 246 248 250 252 255
226 229 232 231 233 239 239 236 237 240 240 239 238 236 232 231 232 235 239 237 236 238 241 244 248 248 248 249 252 255 256 255 255 254 255 259 263 266 268 270 273 278 278 276 278 278 276 274 269 265 269 279 285 286 284 281 277 273 269 268 268 263 259 257 256 255 255 255 255 255 254 253 252 252 251 249 247 245 244 243 243 244 246 247 250 253
226 228 231 231 232 237 239 238 237 240 242 241 238 235 233 233 235 240 243 242 240 241 242 245 248 249 251 252 253 253 254 254 255 255 256 259 262 263 267 272 277 279 279 277 274 272 273 272 269 272 277 282 285 285 282 281 277 272 268 268 265 259 255 254 253 253 253 252 252 252 250 249 249 249 248 246 243 241 240 240 241 242 244 247 249 252
227 229 229 228 231 238 239 239 239 241 242 239 237 238 239 240 243 246 246 247 251 251 250 251 250 249 256 265 265 257 253 253 255 258 261 262 262 264 269 275 278 279 278 278 272 266 267 268 268 275 280 279 278 278 278 278 274 267 265 266 262 254 251 252 252 253 253 251 250 249 247 248 248 246 244 242 240 239 239 240 242 244 247 250 252 254
225 227 230 229 230 239 242 242 240 238 235 239 242 244 245 245 244 245 245 249 254 254 254 258 261 263 269 275 271 263 260 259 260 263 264 264 266 269 272 274 277 279 279 279 273 267 266 267 270 275 276 271 270 271 273 272 268 262 260 263 260 252 250 252 253 254 253 251 249 248 247 248 247 245 244 242 240 241 241 243 245 248 251 253 254 255
224 224 228 227 227 236 240 236 230 227 235 245 249 250 249 250 250 249 251 254 255 255 257 260 264 267 269 269 271 274 272 267 264 264 265 266 269 272 272 272 274 276 278 279 278 274 272 272 273 273 270 266 267 267 266 266 265 261 258 261 259 251 249 253 255 256 256 253 250 248 248 249 248 248 248 246 245 245 245 247 249 251 253 253 254 255
225 222 220 218 219 228 230 221 217 239 247 246 249 250 249 250 251 247 248 253 254 253 254 256 260 264 267 271 276 278 274 268 266 265 264 266 268 269 269 270 271 275 277 278 276 274 275 278 279 275 269 265 262 259 257 260 260 257 257 259 256 250 250 254 256 257 258 257 254 251 250 250 251 251 251 251 250 249 249 251 252 252 253 252 253 255
226 222 219 214 213 218 222 224 230 242 248 245 247 250 250 249 250 247 246 251 256 253 247 250 257 263 268 271 273 273 271 268 266 264 263 263 265 266 268 271 274 277 278 276 275 276 279 282 283 280 273 265 257 251 251 254 255 255 256 256 253 250 251 254 255 256 258 259 258 257 255 253 252 252 252 252 253 252 252 252 253 253 253 253 253 257
227 228 231 229 224 226 237 248 237 231 238 235 237 245 249 249 253 254 249 252 259 256 248 250 256 259 261 264 265 265 267 269 268 266 264 265 267 270 275 279 280 279 279 280 282 282 280 280 280 278 272 263 252 246 247 251 254 253 253 253 252 251 251 252 254 254 254 256 258 260 259 256 254 253 253 253 253 253 253 253 254 254 254 253 254 257
222 225 234 240 237 230 229 231 221 220 214 210 227 238 240 237 242 243 240 246 253 252 247 248 252 252 251 254 258 261 265 266 265 264 266 272 277 283 287 285 280 278 280 281 280 276 273 273 273 270 264 256 248 244 246 249 250 252 253 252 250 249 248 250 253 254 254 255 258 259 258 255 254 253 253 253 253 254 254 254 255 256 255 254 254 256
216 218 223 228 228 226 222 224 239 244 242 239 237 231 224 224 228 226 228 243 251 251 249 249 251 253 254 256 260 263 263 261 262 266 274 283 289 293 290 283 280 283 282 274 271 272 273 273 272 267 261 255 249 246 246 246 245 247 250 249 247 246 245 248 254 257 257 257 257 257 255 253 252 251 251 252 253 254 255 256 257 257 256 255 254 254
209 215 221 226 229 227 223 225 243 252 251 248 243 239 247 259 250 231 223 238 248 252 255 257 261 264 266 266 266 264 263 264 268 277 287 292 293 293 290 287 286 285 279 273 274 278 278 276 275 272 265 259 254 250 246 243 241 242 245 247 247 246 247 250 255 257 257 258 257 255 253 253 252 250 249 250 251 253 255 255 256 255 254 254 253 252
202 210 219 225 230 233 231 231 245 259 258 255 251 252 257 261 258 252 248 246 247 249 258 271 280 284 281 277 270 268 272 276 278 284 291 293 293 293 289 284 282 278 274 274 276 280 282 280 276 272 267 264 261 255 248 242 239 240 242 244 245 247 248 251 253 254 256 257 257 253 251 252 252 251 250 250 251 252 252 252 252 252 251 251 251 252
208 205 209 218 225 227 224 223 234 259 262 260 257 254 255 255 257 265 272 266 253 250 262 275 282 282 280 277 274 275 280 281 279 281 287 289 291 291 287 282 279 273 270 270 272 278 284 282 274 268 266 265 263 258 250 243 240 240 240 241 242 244 247 249 251 253 254 255 255 252 250 250 251 251 251 250 250 249 248 247 248 248 249 249 251 252
220 214 215 222 222 212 204 212 231 256 262 262 253 245 253 260 260 262 268 266 258 258 267 274 276 276 278 277 275 276 278 279 278 280 284 286 287 288 288 285 279 273 270 268 269 275 280 279 274 270 267 263 260 257 251 245 241 239 239 240 239 240 243 246 249 251 253 254 255 253 251 250 250 249 250 248 247 246 245 245 245 245 246 248 250 252
232 233 236 240 238 233 233 246 261 265 259 260 258 251 252 257 258 257 262 264 260 260 265 270 272 273 273 274 277 278 278 280 283 284 286 286 286 287 288 285 279 274 269 267 268 274 279 279 276 272 267 261 259 257 252 247 243 239 238 238 237 236 240 244 247 251 253 255 255 254 252 250 248 247 247 246 244 244 244 244 244 244 245 247 249 252
240 243 247 251 254 259 262 263 264 260 254 254 259 260 258 258 258 258 261 263 263 263 266 270 274 275 273 274 278 282 284 288 290 289 287 286 286 287 288 286 283 277 270 269 271 276 279 279 276 273 267 262 258 256 253 248 244 239 236 235 233 234 238 243 248 251 253 254 253 251 250 248 245 244 243 243 243 242 243 243 244 245 246 247 249 251
244 241 241 245 248 255 259 258 257 258 259 258 259 260 261 261 260 259 261 264 265 267 269 272 275 278 278 277 280 285 288 290 290 288 286 284 283 283 285 285 285 283 277 274 274 276 278 278 276 274 270 264 259 256 253 248 244 240 235 233 233 235 239 244 248 251 252 252 250 248 246 245 243 240 240 242 242 242 243 244 245 247 248 250 250 249
248 245 243 243 244 248 257 261 261 261 260 259 258 259 259 259 259 260 261 262 264 266 269 272 276 281 283 282 284 286 287 287 287 288 287 284 281 280 281 281 283 284 281 274 271 273 275 274 274 276 275 269 264 260 256 250 245 241 235 233 235 237 241 245 249 251 252 250 247 245 244 243 240 237 238 240 241 242 244 246 247 250 251 251 250 247
245 246 248 249 250 254 258 258 257 257 257 255 255 257 260 263 265 266 268 270 271 271 271 271 275 281 286 286 285 286 286 286 287 289 290 287 283 280 279 278 280 283 279 270 266 268 269 268 272 279 282 280 272 264 257 252 247 243 237 233 236 239 243 247 250 251 250 247 245 244 243 240 237 235 236 238 240 242 244 245 247 249 250 249 246 243
243 246 248 247 248 253 255 255 256 260 262 260 258 259 265 271 274 274 274 273 272 272 273 273 274 277 282 286 287 288 288 287 286 288 290 288 285 283 280 278 279 280 276 269 266 265 263 264 271 280 288 293 286 270 258 252 249 245 239 235 236 240 244 247 247 246 245 244 243 242 240 237 234 233 234 236 238 240 242 244 246 247 247 245 243 241
248 251 251 247 251 257 258 258 262 266 267 264 261 262 267 271 273 272 271 269 269 270 272 275 276 277 279 283 286 289 290 288 286 288 288 286 284 283 281 277 277 278 274 270 268 264 259 260 269 276 286 296 295 280 263 253 249 246 241 236 235 238 243 243 242 241 242 242 243 242 239 236 234 233 234 235 237 240 241 243 244 245 245 243 241 240
Height
3120 3122 3120 3119 3120 3123 3128 3131 3135 3137 3140 3142 3144 3146 3146 3148 3149 3151 3155 3156 3157 3156 3153 3153 3153 3151 3150 3152 3155 3158 3158 3158 3157 3158 3159 3160 3161 3161 3162 3162 3163 3163 3164 3167 3168 3168 3168 3168 3169 3169 3169 3169 3169 3169 3170 3171 3173 3174 3176 3176 3177 3179 3179 3179 3180 3181 3181 3182 3183 3184 3184 3185 3186 3186 3186 3186 3187 3187 3188 3188 3188 3188 3189 3189 3190 3190
3117 3115 3112 3114 3118 3124 3129 3132 3135 3136 3138 3140 3142 3143 3144 3146 3147 3150 3153 3155 3156 3153 3150 3152 3150 3148 3148 3148 3150 3153 3153 3153 3154 3154 3155 3156 3157 3158 3158 3159 3159 3160 3162 3163 3164 3164 3165 3165 3166 3166 3166 3166 3166 3167 3167 3168 3169 3171 3172 3173 3175 3176 3176 3176 3178 3178 3179 3180 3181 3181 3182 3182 3183 3183 3183 3183 3184 3184 3184 3184 3185 3186 3186 3187 3187 3187
3112 3108 3108 3113 3120 3125 3128 3130 3133 3134 3135 3137 3139 3141 3142 3143 3145 3148 3151 3153 3155 3152 3149 3150 3147 3144 3146 3145 3145 3147 3147 3148 3151 3151 3151 3152 3153 3154 3155 3155 3156 3157 3158 3160 3161 3161 3162 3163 3163 3163 3163 3163 3164 3164 3165 3165 3166 3167 3167 3169 3172 3172 3173 3174 3175 3175 3176 3178 3178 3178 3179 3179 3180 3180 3181 3181 3181 3181 3181 3182 3183 3184 3184 3185 3185 3185
3104 3103 3107 3114 3120 3123 3124 3126 3130 3131 3133 3134 3136 3138 3139 3141 3144 3146 3149 3152 3153 3151 3149 3148 3144 3139 3141 3141 3139 3141 3142 3143 3147 3147 3147 3148 3148 3149 3151 3152 3153 3154 3155 3156 3157 3158 3159 3159 3160 3160 3160 3160 3161 3161 3161 3161 3162 3163 3164 3166 3168 3169 3170 3171 3172 3173 3174 3174 3175 3175 3175 3176 3176 3177 3178 3178 3178 3178 3180 3181 3182 3182 3183 3182 3182 3183
3099 3101 3107 3114 3117 3118 3120 3122 3126 3128 3130 3131 3133 3135 3136 3139 3143 3145 3148 3151 3151 3151 3148 3149 3143 3130 3131 3136 3132 3136 3139 3138 3142 3143 3142 3143 3144 3146 3147 3148 3149 3150 3152 3153 3153 3155 3156 3156 3157 3157 3157 3157 3157 3157 3157 3159 3159 3160 3161 3162 3164 3165 3166 3168 3169 3170 3170 3170 3170 3171 3171 3172 3173 3174 3174 3175 3176 3177 3178 3179 3180 3180 3180 3180 3180 3180
3099 3101 3105 3110 3112 3113 3117 3119 3122 3124 3126 3128 3129 3131 3135 3138 3142 3144 3147 3149 3149 3149 3147 3151 3145 3122 3120 3129 3128 3132 3134 3132 3136 3137 3137 3140 3141 3142 3143 3144 3146 3147 3148 3149 3150 3152 3152 3152 3153 3153 3153 3153 3153 3154 3155 3156 3156 3157 3158 3158 3159 3160 3162 3163 3165 3166 3166 3166 3166 3167 3167 3169 3170 3171 3171 3173 3174 3175 3176 3176 3176 3176 3176 3176 3176 3176
3098 3100 3103 3107 3109 3111 3115 3116 3119 3123 3125 3125 3124 3129 3135 3137 3140 3142 3145 3148 3147 3146 3145 3150 3147 3125 3115 3121 3124 3127 3128 3126 3130 3131 3132 3136 3137 3137 3139 3140 3143 3144 3145 3146 3146 3147 3148 3149 3149 3149 3149 3149 3149 3151 3152 3152 3153 3153 3154 3154 3155 3156 3157 3159 3160 3161 3161 3162 3162 3163 3164 3165 3166 3167 3169 3170 3171 3172 3172 3172 3172 3173 3173 3173 3173 3173
3094 3097 3100 3104 3106 3108 3110 3111 3115 3120 3123 3122 3123 3129 3134 3135 3138 3141 3143 3146 3145 3145 3145 3145 3147 3134 3114 3109 3117 3122 3122 3121 3123 3126 3128 3131 3133 3134 3136 3137 3139 3141 3142 3142 3142 3143 3144 3145 3145 3145 3145 3145 3145 3147 3148 3148 3149 3149 3150 3151 3151 3152 3153 3154 3155 3156 3157 3158 3159 3160 3160 3161 3162 3163 3166 3167 3167 3168 3168 3168 3168 3169 3169 3170 3170 3170
3091 3093 3095 3098 3101 3102 3103 3107 3113 3118 3121 3121 3123 3129 3133 3135 3138 3140 3142 3145 3145 3145 3142 3140 3146 3139 3112 3101 3112 3116 3116 3115 3116 3121 3126 3127 3130 3130 3132 3134 3136 3138 3138 3138 3139 3139 3141 3141 3141 3141 3141 3141 3141 3142 3142 3143 3145 3146 3146 3147 3147 3147 3148 3149 3150 3151 3153 3154 3155 3156 3156 3157 3158 3160 3161 3162 3162 3163 3164 3164 3165 3165 3166 3166 3167 3167
3090 3091 3094 3096 3096 3098 3101 3106 3112 3116 3119 3121 3124 3127 3132 3135 3136 3139 3141 3143 3145 3142 3136 3135 3142 3139 3111 3095 3107 3111 3107 3109 3113 3118 3122 3124 3127 3127 3128 3131 3132 3133 3134 3134 3135 3136 3137 3138 3137 3137 3136 3136 3137 3137 3138 3138 3140 3141 3142 3143 3142 3143 3144 3145 3146 3147 3148 3149 3150 3151 3152 3153 3155 3156 3157 3157 3158 3159 3159 3161 3161 3162 3162 3163 3163 3163
3088 3090 3093 3093 3095 3098 3101 3106 3110 3114 3118 3121 3124 3127 3130 3134 3135 3138 3138 3140 3144 3136 3129 3129 3134 3140 3117 3089 3096 3105 3101 3107 3112 3114 3117 3121 3124 3124 3125 3127 3128 3130 3130 3130 3131 3132 3134 3134 3133 3133 3132 3133 3133 3133 3134 3134 3135 3136 3137 3138 3139 3140 3141 3142 3143 3143 3144 3145 3146 3147 3148 3149 3151 3153 3153 3153 3154 3155 3156 3157 3158 3158 3159 3159 3159 3160
3085 3087 3088 3090 3093 3096 3100 3105 3108 3113 3117 3120 3123 3125 3129 3133 3133 3136 3136 3138 3139 3128 3121 3123 3127 3137 3120 3087 3088 3099 3099 3105 3108 3109 3114 3117 3120 3121 3122 3124 3125 3126 3126 3126 3128 3129 3130 3130 3130 3130 3129 3130 3130 3129 3130 3130 3131 3133 3134 3135 3135 3137 3138 3139 3140 3140 3141 3142 3142 3144 3145 3146 3148 3149 3148 3149 3151 3152 3152 3153 3154 3154 3155 3156 3156 3156
3080 3081 3084 3088 3089 3091 3096 3101 3106 3110 3114 3117 3120 3123 3127 3131 3131 3131 3130 3128 3128 3120 3115 3119 3123 3125 3110 3087 3088 3096 3097 3102 3104 3106 3111 3114 3116 3119 3119 3120 3121 3121 3121 3122 3124 3125 3126 3127 3126 3126 3126 3126 3126 3126 3127 3127 3128 3129 3130 3131 3132 3133 3135 3135 3136 3137 3138 3139 3139 3141 3141 3142 3144 3144 3144 3145 3147 3148 3149 3150 3150 3150 3151 3152 3152 3152
3077 3079 3081 3083 3084 3086 3090 3094 3098 3102 3107 3109 3111 3114 3118 3122 3124 3124 3123 3121 3120 3116 3113 3119 3121 3115 3103 3089 3087 3090 3093 3099 3101 3103 3107 3110 3114 3116 3116 3117 3117 3117 3118 3119 3121 3122 3122 3123 3123 3122 3122 3123 3123 3123 3123 3124 3125 3125 3126 3127 3128 3130 3131 3132 3132 3133 3134 3134 3135 3136 3137 3138 3139 3139 3139 3141 3142 3144 3145 3145 3146 3146 3147 3147 3148 3149
3072 3072 3072 3074 3076 3079 3083 3086 3090 3095 3098 3099 3101 3105 3107 3110 3112 3113 3113 3113 3114 3113 3113 3118 3116 3106 3097 3088 3084 3086 3089 3094 3097 3101 3105 3107 3110 3112 3113 3113 3113 3114 3116 3117 3118 3119 3119 3119 3119 3118 3119 3119 3120 3120 3120 3121 3121 3122 3123 3124 3125 3127 3128 3128 3128 3129 3129 3131 3131 3132 3132 3133 3134 3134 3135 3136 3138 3139 3140 3141 3141 3142 3143 3143 3145 3145
3067 3066 3066 3070 3072 3076 3079 3083 3089 3094 3096 3097 3100 3104 3102 3102 3105 3105 3106 3107 3109 3111 3109 3109 3104 3094 3089 3084 3084 3087 3086 3089 3094 3097 3100 3103 3106 3109 3109 3109 3111 3112 3113 3113 3115 3116 3116 3116 3115 3115 3116 3116 3117 3117 3117 3118 3118 3119 3120 3121 3122 3123 3124 3124 3124 3125 3126 3127 3127 3127 3128 3128 3129 3130 3130 3132 3134 3135 3136 3136 3137 3138 3139 3140 3141 3141
3061 3064 3065 3068 3071 3074 3077 3081 3085 3088 3091 3094 3097 3097 3097 3100 3103 3105 3105 3105 3108 3109 3103 3100 3095 3091 3090 3080 3077 3084 3083 3084 3089 3091 3096 3100 3103 3106 3105 3107 3109 3109 3110 3110 3110 3112 3112 3112 3113 3113 3114 3113 3114 3114 3115 3116 3116 3116 3117 3118 3119 3120 3120 3120 3121 3121 3122 3122 3123 3123 3124 3124 3124 3124 3125 3127 3129 3131 3131 3131 3132 3134 3135 3136 3137 3137
3058 3061 3063 3065 3068 3071 3076 3080 3081 3083 3087 3088 3088 3091 3096 3100 3102 3104 3105 3104 3107 3106 3098 3095 3090 3089 3089 3076 3068 3077 3079 3080 3084 3088 3092 3096 3099 3102 3102 3104 3106 3106 3107 3107 3107 3108 3108 3109 3110 3111 3111 3111 3111 3111 3112 3113 3113 3113 3114 3114 3115 3116 3116 3117 3117 3117 3118 3118 3119 3119 3120 3120 3120 3120 3121 3122 3125 3126 3126 3126 3128 3130 3131 3132 3133 3133
3058 3060 3062 3064 3066 3069 3073 3076 3077 3079 3082 3082 3085 3090 3092 3093 3095 3098 3099 3099 3102 3100 3092 3089 3085 3083 3082 3070 3064 3071 3074 3076 3081 3085 3089 3092 3095 3098 3099 3101 3102 3102 3104 3104 3104 3105 3105 3106 3107 3107 3108 3108 3108 3108 3108 3109 3109 3109 3110 3111 3111 3112 3113 3113 3113 3113 3114 3114 3115 3116 3116 3116 3116 3116 3117 3118 3119 3120 3120 3122 3125 3125 3127 3128 3128 3128
3056 3059 3060 3062 3065 3067 3068 3069 3071 3074 3078 3081 3085 3087 3086 3087 3089 3089 3089 3090 3093 3093 3088 3085 3080 3074 3070 3064 3064 3069 3071 3074 3079 3082 3086 3089 3092 3095 3096 3097 3098 3098 3099 3100 3100 3100 3101 3102 3103 3103 3104 3104 3105 3105 3105 3106 3106 3106 3107 3107 3108 3109 3109 3109 3109 3110 3110 3111 3111 3111 3112 3112 3112 3112 3112 3113 3114 3115 3116 3118 3120 3121 3122 3123 3123 3124
3055 3056 3057 3060 3062 3063 3063 3063 3065 3068 3071 3074 3078 3079 3080 3083 3085 3085 3086 3086 3088 3089 3086 3083 3074 3063 3060 3062 3064 3068 3070 3072 3076 3078 3081 3085 3089 3092 3094 3094 3096 3096 3095 3095 3096 3097 3098 3099 3100 3100 3101 3101 3101 3102 3102 3102 3103 3103 3103 3103 3104 3104 3105 3105 3106 3106 3107 3107 3107 3107 3108 3108 3108 3108 3108 3109 3109 3110 3112 3114 3115 3116 3117 3118 3119 3119
3051 3052 3055 3057 3057 3058 3059 3060 3062 3065 3066 3068 3070 3071 3073 3075 3078 3081 3081 3081 3083 3083 3080 3080 3069 3054 3056 3062 3063 3066 3068 3069 3073 3075 3076 3080 3084 3088 3090 3091 3092 3093 3092 3092 3093 3094 3095 3095 3096 3096 3096 3097 3098 3099 3099 3099 3099 3099 3099 3099 3100 3100 3101 3102 3102 3102 3102 3103 3103 3103 3104 3104 3104 3105 3104 3104 3105 3106 3107 3109 3110 3111 3112 3112 3114 3114
3047 3049 3051 3053 3054 3056 3057 3058 3061 3063 3064 3067 3068 3069 3071 3072 3073 3074 3073 3074 3077 3076 3075 3077 3066 3050 3053 3061 3061 3063 3065 3066 3069 3071 3073 3076 3079 3083 3085 3086 3088 3089 3089 3089 3090 3091 3092 3091 3091 3092 3092 3094 3094 3094 3095 3095 3095 3096 3096 3096 3096 3097 3098 3098 3098 3098 3098 3099 3099 3100 3100 3100 3100 3100 3100 3100 3101 3102 3103 3104 3105 3106 3106 3107 3108 3108
3044 3046 3048 3051 3053 3054 3055 3056 3059 3060 3061 3063 3064 3066 3068 3069 3070 3070 3070 3071 3071 3070 3072 3075 3066 3051 3050 3057 3059 3060 3062 3063 3065 3067 3069 3073 3076 3079 3082 3083 3084 3085 3086 3087 3088 3088 3088 3088 3088 3089 3089 3090 3090 3091 3091 3092 3092 3092 3092 3093 3093 3094 3094 3094 3094 3094 3095 3095 3095 3096 3096 3096 3096 3096 3096 3097 3097 3098 3099 3100 3100 3101 3101 3102 3102 3103
3040 3041 3044 3048 3050 3051 3051 3053 3055 3055 3056 3056 3058 3060 3062 3065 3069 3069 3069 3071 3068 3067 3069 3070 3063 3053 3050 3053 3056 3058 3059 3060 3062 3064 3067 3070 3073 3076 3079 3082 3083 3083 3084 3085 3085 3085 3086 3086 3086 3086 3086 3086 3087 3087 3088 3088 3089 3089 3089 3089 3090 3090 3090 3090 3090 3090 3091 3091 3092 3092 3092 3092 3092 3092 3093 3093 3094 3094 3095 3095 3096 3096 3096 3097 3098 3098
3035 3035 3037 3039 3040 3040 3041 3042 3043 3045 3048 3050 3051 3054 3056 3059 3063 3064 3066 3066 3063 3062 3064 3063 3058 3052 3048 3051 3053 3055 3057 3059 3060 3063 3065 3067 3070 3073 3076 3079 3080 3081 3082 3083 3083 3083 3083 3083 3083 3083 3084 3084 3085 3085 3085 3085 3085 3086 3086 3086 3086 3086 3086 3086 3086 3087 3087 3088 3088 3088 3088 3089 3089 3089 3089 3090 3090 3090 3091 3091 3091 3092 3092 3093 3093 3094
3031 3030 3030 3031 3031 3030 3031 3032 3035 3037 3040 3043 3046 3048 3050 3052 3056 3060 3060 3058 3057 3060 3058 3055 3056 3053 3046 3047 3051 3052 3055 3058 3060 3062 3064 3065 3068 3071 3073 3075 3076 3078 3080 3081 3081 3080 3080 3080 3081 3081 3081 3082 3083 3083 3082 3082 3082 3082 3082 3082 3082 3082 3082 3083 3083 3083 3084 3083 3084 3084 3084 3085 3085 3085 3085 3086 3086 3087 3087 3087 3088 3088 3089 3089 3089 3090
3026 3025 3026 3027 3026 3027 3030 3031 3032 3032 3033 3036 3039 3041 3044 3047 3050 3053 3051 3051 3056 3057 3051 3049 3056 3054 3042 3041 3048 3052 3054 3058 3059 3061 3063 3065 3067 3069 3070 3072 3074 3075 3077 3078 3079 3078 3077 3078 3078 3078 3079 3080 3080 3080 3080 3079 3079 3079 3079 3079 3079 3078 3078 3079 3079 3079 3080 3079 3080 3080 3080 3081 3081 3081 3082 3082 3082 3083 3083 3083 3084 3084 3085 3085 3085 3086
3020 3019 3021 3024 3023 3024 3029 3030 3029 3029 3029 3031 3033 3035 3038 3041 3044 3044 3044 3047 3051 3050 3046 3048 3055 3053 3042 3039 3047 3052 3053 3056 3058 3059 3061 3063 3064 3066 3067 3069 3070 3071 3072 3073 3075 3075 3075 3075 3076 3076 3076 3076 3076 3076 3076 3075 3075 3075 3075 3075 3075 3074 3074 3074 3074 3075 3075 3075 3076 3076 3076 3076 3076 3077 3078 3078 3078 3079 3079 3079 3080 3080 3080 3081 3081 3081
3016 3015 3018 3020 3020 3021 3024 3026 3027 3028 3027 3028 3029 3031 3034 3036 3039 3041 3041 3044 3046 3045 3046 3048 3050 3047 3040 3038 3045 3049 3050 3053 3055 3056 3057 3058 3059 3061 3063 3064 3065 3065 3067 3068 3070 3071 3071 3072 3072 3072 3072 3071 3071 3071 3071 3071 3070 3070 3070 3070 3071 3071 3071 3070 3070 3071 3071 3071 3071 3072 3072 3072 3073 3073 3074 3074 3074 3075 3075 3075 3076 3076 3076 3077 3077 3077
3013 3013 3016 3019 3018 3017 3019 3023 3024 3024 3025 3026 3026 3028 3031 3032 3035 3038 3040 3041 3042 3042 3044 3046 3045 3040 3034 3036 3043 3045 3046 3049 3050 3050 3052 3053 3055 3057 3057 3058 3059 3060 3061 3063 3065 3066 3067 3067 3067 3067 3067 3066 3066 3066 3066 3066 3066 3065 3065 3066 3066 3066 3066 3066 3066 3067 3067 3067 3067 3068 3068 3069 3069 3069 3070 3070 3070 3071 3071 3071 3072 3072 3073 3073 3073 3074
3009 3010 3013 3016 3013 3011 3015 3019 3019 3020 3022 3021 3020 3024 3027 3028 3029 3032 3033 3035 3036 3037 3040 3042 3040 3032 3027 3034 3042 3042 3042 3043 3043 3045 3048 3050 3051 3053 3052 3053 3054 3055 3057 3058 3060 3061 3062 3062 3062 3062 3062 3062 3061 3060 3060 3060 3060 3060 3060 3061 3061 3061 3062 3062 3062 3063 3063 3063 3064 3064 3065 3065 3065 3065 3066 3066 3067 3067 3067 3068 3068 3069 3069 3070 3070 3070
3005 3007 3009 3011 3009 3007 3010 3013 3015 3019 3015 3008 3010 3019 3022 3022 3023 3024 3025 3027 3031 3034 3035 3034 3032 3028 3028 3035 3039 3037 3036 3038 3039 3041 3044 3046 3048 3048 3047 3047 3048 3050 3052 3054 3055 3056 3057 3057 3057 3057 3057 3057 3056 3055 3054 3054 3054 3055 3055 3056 3056 3056 3057 3058 3058 3058 3059 3059 3060 3060 3061 3061 3061 3062 3062 3063 3063 3063 3064 3064 3065 3065 3066 3066 3067 3067
3001 3002 3004 3006 3006 3005 3007 3010 3014 3011 3002 2998 3006 3014 3015 3014 3015 3015 3016 3020 3024 3026 3028 3028 3029 3029 3029 3030 3031 3029 3029 3033 3037 3038 3039 3041 3042 3042 3041 3042 3043 3045 3047 3048 3049 3051 3052 3052 3052 3052 3052 3051 3051 3051 3050 3048 3049 3050 3050 3050 3050 3051 3052 3053 3053 3053 3054 3054 3055 3056 3056 3057 3057 3058 3058 3059 3059 3060 3060 3061 3061 3062 3062 3063 3063 3063
2997 2999 3000 3002 3003 3002 3005 3008 3006 2998 2993 2998 3007 3008 3007 3009 3011 3012 3013 3015 3019 3021 3023 3025 3025 3024 3022 3022 3025 3026 3026 3029 3032 3032 3033 3034 3035 3035 3036 3037 3038 3040 3041 3042 3043 3044 3045 3046 3047 3047 3047 3046 3046 3046 3045 3044 3044 3045 3045 3045 3045 3046 3046 3047 3047 3048 3048 3049 3050 3051 3052 3052 3053 3054 3054 3055 3056 3056 3057 3057 3058 3058 3059 3059 3059 3059
2995 2995 2996 2997 2999 3000 3000 3000 2996 2991 2992 2999 3002 3000 3003 3006 3009 3011 3009 3008 3012 3015 3016 3017 3017 3017 3018 3019 3022 3024 3022 3024 3026 3025 3026 3027 3028 3029 3030 3030 3033 3035 3036 3037 3037 3037 3039 3040 3041 3041 3041 3040 3041 3040 3039 3039 3039 3040 3040 3040 3040 3040 3041 3041 3041 3042 3043 3044 3045 3046 3047 3048 3049 3049 3050 3051 3051 3052 3053 3053 3054 3054 3055 3055 3055 3055
2992 2992 2993 2995 2995 2995 2994 2992 2992 2992 2993 2994 2994 2995 2998 3001 3003 3005 3002 2999 3004 3009 3010 3011 3012 3014 3016 3016 3018 3019 3018 3018 3018 3016 3017 3019 3021 3022 3024 3026 3029 3031 3031 3031 3031 3031 3032 3033 3034 3035 3034 3034 3034 3034 3034 3034 3034 3034 3033 3034 3035 3035 3035 3035 3036 3037 3038 3039 3040 3041 3042 3043 3044 3045 3046 3046 3047 3048 3048 3049 3049 3050 3050 3051 3051 3051
2989 2989 2991 2993 2992 2991 2991 2991 2991 2992 2991 2990 2991 2992 2994 2996 2999 3002 2999 2996 3000 3006 3008 3009 3010 3010 3011 3012 3013 3014 3015 3014 3011 3007 3007 3010 3015 3019 3022 3024 3025 3026 3026 3025 3025 3025 3025 3026 3027 3027 3027 3026 3026 3027 3028 3029 3029 3028 3026 3027 3028 3029 3029 3029 3031 3033 3033 3035 3036 3037 3037 3038 3038 3040 3041 3042 3042 3043 3044 3044 3045 3045 3046 3046 3047 3047
2986 2987 2988 2990 2990 2989 2990 2989 2989 2988 2987 2988 2989 2990 2991 2992 2995 2998 2997 2992 2994 3001 3004 3005 3005 3005 3005 3007 3007 3010 3012 3010 3004 2999 2999 3004 3012 3017 3019 3019 3019 3018 3018 3018 3018 3018 3018 3019 3019 3019 3019 3018 3018 3019 3021 3022 3022 3021 3020 3020 3022 3022 3022 3023 3026 3028 3029 3030 3031 3032 3032 3032 3033 3034 3035 3036 3037 3038 3038 3039 3040 3041 3041 3042 3042 3042
2982 2984 2985 2986 2986 2986 2987 2987 2987 2985 2985 2986 2987 2987 2989 2990 2992 2994 2992 2989 2992 2997 2999 3001 3001 3001 3001 3003 3004 3005 3005 3003 2998 2997 3000 3005 3010 3012 3012 3012 3011 3011 3011 3011 3012 3012 3012 3012 3012 3012 3012 3011 3011 3013 3014 3013 3014 3013 3013 3014 3015 3014 3015 3018 3021 3023 3024 3025 3026 3026 3026 3027 3027 3028 3029 3030 3031 3032 3033 3034 3035 3035 3036 3037 3037 3038
2979 2981 2982 2982 2983 2984 2985 2985 2984 2982 2982 2985 2987 2987 2988 2989 2989 2989 2988 2989 2991 2993 2996 2998 2998 2997 2999 3000 3000 2999 2999 2999 2998 2999 3002 3004 3005 3006 3006 3005 3005 3005 3005 3005 3006 3007 3007 3006 3006 3005 3005 3006 3006 3007 3006 3006 3005 3005 3006 3008 3008 3008 3011 3015 3017 3018 3018 3018 3020 3021 3021 3022 3022 3022 3023 3024 3024 3026 3027 3028 3029 3030 3031 3032 3032 3033
2975 2977 2978 2979 2981 2982 2982 2984 2983 2979 2978 2982 2985 2985 2986 2986 2985 2985 2987 2989 2989 2990 2993 2993 2993 2994 2995 2996 2995 2994 2995 2996 2996 2997 2998 2999 2999 3000 3000 3000 2999 2999 2999 3000 3000 3001 3001 3001 3000 3000 2999 3000 3001 3001 3000 2999 2998 2998 3000 3000 3000 3004 3009 3011 3011 3011 3011 3012 3014 3015 3016 3017 3017 3017 3018 3018 3019 3020 3021 3022 3023 3024 3025 3026 3027 3028
2971 2973 2974 2975 2976 2978 2980 2981 2980 2977 2975 2977 2979 2981 2982 2981 2982 2984 2986 2987 2987 2987 2989 2989 2989 2991 2991 2991 2991 2990 2990 2992 2992 2992 2993 2993 2993 2994 2994 2993 2993 2993 2994 2994 2995 2996 2996 2995 2994 2994 2994 2994 2995 2995 2994 2993 2992 2993 2993 2992 2995 3001 3005 3005 3004 3005 3005 3006 3008 3009 3011 3011 3012 3012 3012 3013 3014 3014 3015 3016 3017 3018 3019 3020 3021 3022
2967 2968 2968 2968 2969 2971 2972 2971 2972 2972 2973 2973 2973 2976 2977 2977 2979 2982 2982 2983 2984 2984 2984 2984 2986 2987 2987 2986 2986 2986 2985 2986 2986 2986 2987 2987 2987 2988 2988 2988 2988 2988 2988 2989 2989 2990 2990 2989 2988 2988 2988 2988 2989 2988 2987 2986 2986 2987 2986 2987 2992 2997 2998 2997 2998 2999 2999 3000 3002 3003 3005 3006 3006 3007 3007 3008 3008 3009 3010 3011 3012 3013 3014 3015 3016 3017
2961 2962 2963 2964 2964 2965 2965 2965 2966 2968 2969 2968 2969 2971 2973 2974 2976 2977 2977 2977 2978 2978 2979 2980 2981 2983 2984 2983 2982 2981 2981 2981 2981 2981 2982 2981 2981 2982 2982 2982 2983 2983 2983 2983 2983 2984 2984 2983 2981 2981 2980 2981 2982 2981 2980 2980 2980 2980 2981 2983 2987 2989 2990 2991 2992 2992 2994 2995 2996 2998 2999 2999 3000 3001 3002 3002 3003 3003 3005 3005 3006 3007 3008 3009 3010 3011
2958 2960 2961 2962 2963 2963 2962 2962 2963 2963 2964 2964 2965 2967 2969 2969 2971 2973 2973 2973 2974 2975 2976 2976 2977 2979 2980 2980 2978 2977 2977 2976 2976 2976 2977 2977 2976 2976 2976 2977 2977 2977 2977 2977 2978 2979 2978 2977 2975 2973 2972 2972 2974 2974 2973 2973 2973 2973 2976 2979 2980 2981 2982 2984 2985 2986 2988 2989 2990 2991 2992 2992 2993 2994 2996 2996 2997 2998 2999 3000 3001 3001 3002 3003 3005 3006
2956 2958 2958 2959 2961 2960 2957 2956 2958 2959 2959 2961 2962 2963 2964 2965 2966 2968 2969 2970 2970 2971 2972 2972 2972 2974 2975 2975 2974 2972 2972 2972 2971 2970 2971 2971 2970 2970 2970 2970 2971 2971 2972 2971 2972 2973 2972 2970 2968 2966 2965 2965 2967 2968 2968 2967 2966 2968 2971 2973 2974 2974 2976 2977 2978 2979 2981 2982 2983 2984 2985 2985 2987 2988 2990 2991 2992 2993 2993 2994 2995 2996 2997 2998 3000 3001
2952 2954 2954 2955 2955 2954 2952 2952 2953 2954 2954 2955 2956 2957 2959 2960 2961 2963 2964 2964 2965 2965 2966 2966 2966 2967 2968 2969 2968 2967 2966 2966 2966 2965 2964 2965 2964 2964 2964 2964 2965 2965 2965 2965 2966 2966 2965 2963 2961 2960 2959 2960 2961 2962 2962 2961 2961 2963 2965 2966 2967 2968 2969 2970 2971 2973 2975 2976 2977 2977 2978 2979 2981 2983 2984 2985 2986 2987 2988 2989 2990 2991 2992 2993 2995 2997
2948 2948 2948 2949 2949 2948 2947 2945 2946 2948 2948 2949 2950 2952 2954 2955 2957 2958 2959 2959 2959 2959 2959 2960 2959 2960 2961 2962 2962 2961 2959 2958 2960 2960 2959 2958 2958 2958 2958 2959 2960 2960 2959 2959 2959 2959 2958 2957 2955 2954 2953 2953 2955 2955 2954 2954 2955 2957 2958 2959 2960 2961 2962 2963 2965 2967 2968 2969 2970 2971 2972 2974 2975 2977 2979 2980 2981 2982 2983 2984 2985 2986 2987 2988 2990 2991
2941 2940 2941 2944 2943 2941 2939 2939 2941 2944 2944 2944 2947 2950 2952 2952 2953 2953 2953 2953 2953 2954 2954 2953 2953 2954 2955 2955 2956 2955 2953 2952 2953 2954 2954 2953 2953 2953 2953 2954 2955 2954 2954 2953 2953 2952 2952 2951 2950 2949 2948 2948 2948 2947 2947 2948 2949 2950 2952 2953 2953 2954 2956 2957 2959 2961 2962 2963 2964 2965 2967 2968 2970 2971 2973 2974 2975 2977 2978 2978 2979 2980 2981 2983 2984 2986
2933 2934 2936 2938 2936 2934 2934 2936 2939 2940 2939 2940 2942 2944 2946 2947 2947 2947 2947 2948 2948 2949 2949 2948 2946 2947 2947 2947 2948 2949 2947 2947 2948 2949 2948 2948 2948 2948 2949 2949 2949 2949 2948 2947 2946 2945 2945 2945 2945 2943 2943 2943 2942 2940 2939 2940 2942 2944 2945 2946 2947 2948 2950 2951 2953 2955 2956 2958 2959 2960 2962 2963 2964 2966 2968 2969 2970 2971 2972 2973 2974 2975 2976 2978 2979 2981